Probability
0 0 0 0 0 0 0 0 0 0 0 0 0 0 0 0 0 0 0 1 2 6 9 12 14 13 11 13 14 16 18 19 19 19 17 15 13 10 9 10 10 9 9 8 7 7 7 6 3
0 0 0 0 0 0 0 0 0 0 0 0 0 0 0 0 0 0 0 2 4 6 9 12 14 12 11 13 15 15 17 18 18 17 16 15 14 11 10 10 10 10 9 8 8 7 7 7 5
0 0 0 0 0 0 0 0 0 0 0 0 0 0 0 0 0 0 0 2 4 6 8 12 14 13 11 12 15 16 16 16 16 15 14 15 13 11 10 9 9 9 8 8 8 8 8 8 8
0 0 0 0 0 0 0 0 0 0 0 0 0 0 0 0 0 0 0 1 3 5 6 10 14 13 11 12 15 16 16 15 15 14 14 14 13 11 10 10 10 9 8 7 7 8 9 9 9
0 0 0 0 0 0 0 0 0 0 0 0 0 0 0 0 0 0 0 1 3 4 4 8 11 12 11 11 12 15 16 15 15 14 14 14 13 11 11 12 13 11 8 5 6 8 9 10 9
1 0 0 0 0 0 0 0 0 0 0 0 0 0 0 0 0 1 1 2 3 3 3 5 8 8 8 8 10 13 13 13 13 14 13 14 14 13 12 12 12 11 8 5 4 6 7 8 7
1 0 0 0 0 0 0 0 0 0 0 0 0 0 0 0 0 1 2 2 2 2 3 5 6 6 5 6 8 11 10 10 10 11 12 13 14 13 12 11 10 10 8 6 5 5 5 5 5
1 0 0 0 0 0 0 0 0 0 0 0 0 0 0 0 0 1 3 3 1 1 2 4 4 4 4 4 5 7 7 7 7 8 9 11 12 12 11 10 10 10 9 8 6 5 4 3 3
0 0 0 0 0 0 0 0 0 0 0 0 0 0 0 0 1 2 3 3 2 2 2 2 2 2 2 3 3 5 6 7 7 6 6 8 10 10 10 9 9 10 9 7 6 5 4 3 1
0 0 0 0 0 0 0 0 0 0 0 0 0 0 0 0 1 2 3 3 3 3 4 3 1 0 1 1 1 3 5 7 8 7 6 6 7 7 7 7 7 7 6 4 3 2 2 1 0
0 0 0 0 0 0 0 0 0 0 0 0 0 0 0 0 1 2 3 3 3 2 4 4 1 0 0 0 0 1 3 6 8 8 7 6 5 4 5 5 4 3 2 1 1 0 0 0 0
0 0 0 0 0 0 0 0 0 0 0 0 0 0 0 0 1 2 3 4 3 2 2 3 1 0 0 0 0 0 1 3 4 6 6 6 5 4 4 4 3 1 0 0 0 0 0 0 0
0 0 0 0 0 0 0 0 0 0 0 0 0 0 0 0 1 3 4 5 4 2 2 2 1 0 0 0 0 1 1 1 1 3 4 4 4 4 3 3 2 1 0 0 0 0 0 0 0
0 0 0 0 0 0 0 0 0 0 0 0 0 0 0 0 2 3 4 5 4 3 2 1 0 0 0 0 0 1 1 0 0 1 1 1 2 2 3 3 2 0 0 0 0 0 0 0 0
0 0 0 0 0 0 0 0 0 0 0 0 0 0 0 0 1 1 2 3 3 3 2 0 0 0 0 0 0 1 1 0 0 0 0 0 0 1 2 2 1 0 0 0 0 0 0 0 0
0 0 0 0 0 0 0 0 0 0 0 0 0 0 0 0 0 0 0 1 3 3 1 0 0 0 0 0 0 0 0 0 0 0 0 0 0 0 1 1 1 0 0 0 0 0 0 0 0
0 0 0 0 0 0 0 0 0 0 0 0 0 0 0 0 0 0 0 1 2 2 1 0 0 0 0 0 0 0 0 0 0 0 0 0 0 0 0 0 0 0 0 0 0 0 0 0 0
0 0 0 0 0 0 0 0 0 0 0 0 0 0 0 0 0 0 0 1 2 2 1 0 0 0 0 0 0 0 0 0 0 0 0 0 0 0 0 0 0 0 0 0 0 0 0 0 0
0 0 0 0 0 0 0 0 0 0 0 0 0 0 0 0 0 0 0 0 1 1 1 0 0 0 0 0 0 0 0 0 0 0 0 0 0 0 0 0 0 0 0 0 0 0 0 0 0
0 0 0 0 0 0 0 0 0 0 0 0 0 0 0 0 0 0 0 0 0 0 0 0 0 0 0 0 0 0 0 0 0 0 0 0 0 0 0 0 0 0 0 0 0 0 0 0 0
0 0 0 0 0 0 0 0 0 0 0 0 0 0 0 0 0 0 0 0 0 0 0 0 0 0 0 0 0 0 0 0 0 0 0 0 0 0 0 0 0 0 0 0 0 0 0 0 0
0 0 0 0 0 0 0 0 0 0 0 0 0 0 0 0 0 0 0 0 0 0 0 0 0 0 0 0 0 0 0 0 0 0 0 0 0 0 0 0 0 0 0 0 0 0 0 0 0
0 0 0 0 0 0 0 0 0 0 0 0 0 0 0 0 0 0 0 0 0 0 0 0 0 0 0 0 0 0 0 0 0 0 0 0 0 0 0 0 0 0 0 0 0 0 0 0 0
0 0 0 0 0 0 0 0 0 0 0 0 0 0 0 0 0 0 0 0 0 0 0 0 0 0 0 0 0 0 0 0 0 0 0 0 0 0 0 0 0 0 0 0 0 0 0 0 0
0 0 0 0 0 0 0 0 0 0 0 0 0 0 0 0 0 0 0 0 0 0 0 0 0 0 0 0 0 0 0 0 0 0 0 0 0 0 0 0 0 0 0 0 0 0 0 0 0
0 0 0 0 0 0 0 0 0 0 0 0 0 0 0 0 0 0 0 0 0 0 0 0 0 0 0 0 0 0 0 0 0 0 0 0 0 0 0 0 0 0 0 0 0 0 0 0 0
0 0 0 0 0 0 0 0 0 0 0 0 0 0 0 0 0 0 0 0 0 0 0 0 0 0 0 0 0 0 0 0 0 0 0 0 0 0 0 0 0 0 0 0 0 0 0 0 0
0 0 0 0 0 0 0 0 0 0 0 0 0 0 0 0 0 0 0 0 0 0 0 0 0 0 0 0 0 0 0 0 0 0 0 0 0 0 0 0 0 0 0 0 0 0 0 0 0
0 0 0 0 0 0 0 0 0 0 0 0 0 0 0 0 0 0 0 0 0 0 0 0 0 0 0 0 0 0 0 0 0 0 0 0 0 0 0 0 0 0 0 0 0 0 0 0 0
0 0 0 0 0 0 0 0 0 0 0 0 0 0 0 0 0 0 0 0 0 0 0 0 0 0 0 0 0 0 0 0 0 0 0 0 0 0 0 0 0 0 0 0 0 0 0 0 0
Wind_Speed
6 3 2 4 6 5 2 4 2 1 1 1 1 1 3 3 2 1 2 3 3 2 1 2 4 6 7 7 8 8 8 9 9 9 9 10 10 10 10 10 10 10 10 10 10 10 10 10 10
2 2 5 5 5 1 4 3 3 3 1 1 2 2 3 2 2 2 3 5 3 2 1 1 3 5 6 7 7 8 8 8 9 9 9 9 10 10 10 10 10 9 9 10 10 10 10 10 10
1 3 5 5 4 5 4 2 3 1 1 1 2 2 2 1 2 2 3 4 3 3 3 2 4 4 6 6 6 7 7 7 8 9 8 9 9 9 9 9 9 9 9 9 9 10 10 10 10
3 5 5 4 3 4 3 2 1 1 2 2 2 2 1 2 2 2 3 3 4 4 4 3 4 4 4 5 6 6 6 7 7 8 8 8 9 8 8 8 8 8 8 9 9 9 10 10 10
4 5 4 0 3 3 2 2 1 0 1 2 2 2 0 3 3 3 3 4 4 3 4 4 5 4 4 4 4 5 6 6 6 7 7 8 8 8 8 7 8 8 8 8 9 9 9 9 9
4 4 3 3 3 2 2 1 0 1 0 1 1 2 1 2 4 3 3 3 3 4 4 4 4 5 4 4 5 4 4 5 5 6 7 7 7 7 7 7 7 7 8 8 8 8 9 9 9
4 4 3 3 2 2 1 0 1 0 0 1 0 2 1 2 3 3 3 4 4 5 5 4 3 3 4 3 4 4 4 4 5 5 6 6 6 6 7 6 6 7 7 7 7 8 8 8 8
4 5 2 2 3 3 1 1 1 1 1 1 1 2 2 1 2 3 4 5 5 5 5 5 4 3 2 1 2 3 3 3 4 4 5 5 5 5 5 5 6 6 6 6 7 7 8 7 8
3 4 3 4 4 3 0 1 1 1 2 1 1 0 0 2 2 4 4 5 5 5 4 4 4 4 3 2 2 3 3 3 3 3 4 3 2 2 3 3 5 5 5 6 7 7 7 7 7
4 3 5 3 3 2 0 0 0 1 1 1 1 2 3 3 3 4 3 3 3 4 4 4 3 3 3 2 2 1 1 2 2 2 2 2 2 2 3 3 4 4 5 5 6 7 6 6 3
3 4 2 1 1 1 0 1 0 2 2 3 3 1 1 2 2 2 1 1 1 2 3 3 3 2 2 2 2 1 1 1 1 2 2 2 2 1 2 2 2 2 3 3 4 4 3 3 2
2 2 1 1 0 0 1 1 1 1 3 1 2 2 2 2 1 1 0 1 2 2 3 2 2 2 2 2 1 1 1 1 1 1 2 2 1 1 1 2 1 1 1 2 2 2 2 3 3
1 1 0 0 1 0 1 1 1 2 2 2 3 3 2 1 0 0 0 1 1 2 3 3 2 1 2 2 1 1 1 1 1 1 1 1 2 2 1 1 2 1 2 2 2 2 2 2 2
1 1 2 2 1 0 1 1 1 2 1 2 3 2 1 0 0 1 2 2 2 2 2 2 1 1 1 1 1 1 1 1 1 1 1 1 1 2 2 1 2 2 2 2 2 2 2 2 2
1 1 3 2 0 1 2 3 1 1 2 2 1 1 1 1 1 1 1 1 2 2 2 2 1 1 1 1 1 1 1 1 1 1 1 1 1 1 1 2 2 2 2 2 2 2 2 2 1
2 2 2 3 0 1 2 4 2 1 3 1 0 0 1 2 1 1 2 2 2 2 2 2 1 2 2 1 1 1 1 1 1 1 1 1 1 1 2 1 1 2 2 2 2 2 2 1 1
2 1 3 4 0 1 2 4 2 1 1 1 1 1 1 2 3 3 2 2 2 1 1 2 2 2 2 1 1 1 1 2 1 1 1 1 1 1 2 1 1 2 2 2 2 2 2 2 1
3 3 3 3 2 1 1 4 5 1 1 3 2 1 1 1 3 3 3 3 2 2 2 2 2 2 2 2 2 2 2 2 1 1 1 1 0 1 1 1 1 2 2 2 2 3 2 2 1
3 3 3 4 1 0 3 5 7 3 1 2 2 1 1 2 2 2 3 3 3 3 3 2 2 2 2 1 1 1 1 1 1 1 2 1 0 1 1 1 1 2 2 2 3 3 3 2 1
2 2 2 2 1 1 2 5 5 2 2 3 3 3 3 2 2 3 3 3 3 3 2 2 2 2 2 1 0 0 0 0 0 1 1 1 0 0 1 1 1 1 2 2 2 3 2 2 1
3 4 4 2 2 1 1 5 3 2 0 0 1 2 1 1 1 2 3 3 3 3 2 2 2 2 2 2 1 1 1 1 1 1 1 2 0 1 1 1 1 1 2 2 3 3 3 3 1
4 3 3 2 1 2 0 4 5 2 2 2 1 1 1 1 1 1 2 3 3 3 2 2 3 3 2 2 1 1 0 0 1 1 1 2 1 0 1 1 1 1 1 2 2 2 2 3 3
3 1 2 2 2 1 0 2 7 1 3 4 3 2 1 1 1 1 2 2 3 3 3 2 2 3 2 2 1 1 1 1 1 1 1 1 1 0 0 1 1 1 1 1 1 1 2 3 3
3 4 4 4 3 2 4 4 7 4 5 4 3 2 2 2 1 2 2 2 2 3 3 3 2 2 2 2 1 1 0 1 1 1 1 1 1 1 0 1 1 1 1 1 1 2 2 3 3
3 5 3 4 2 6 2 3 8 4 3 4 4 3 2 2 1 2 2 3 3 3 3 3 2 2 2 1 1 0 1 1 1 1 1 1 1 1 1 1 1 1 1 1 1 2 2 3 3
3 5 6 4 5 4 1 6 7 3 2 1 1 1 2 2 1 2 2 2 2 3 3 3 3 3 2 1 1 1 1 1 1 1 1 1 1 1 1 1 1 2 2 2 2 2 3 2 3
4 3 3 4 1 2 5 5 7 2 2 1 1 2 2 2 2 2 2 2 2 3 3 2 3 3 2 2 1 1 1 1 1 1 1 1 1 1 1 1 1 2 2 2 3 3 3 3 3
2 5 4 3 3 4 5 5 5 4 3 2 2 3 4 3 3 3 3 2 2 2 2 2 2 2 2 2 2 2 1 1 1 1 2 2 2 2 2 2 2 2 2 3 3 3 3 3 3
2 2 3 3 3 3 4 6 4 5 4 3 3 3 3 3 3 3 3 2 2 2 2 3 3 3 2 2 2 2 2 1 1 1 2 2 2 2 2 2 2 2 2 3 3 4 3 4 3
2 4 5 4 4 3 3 7 2 2 2 2 3 3 3 3 3 3 3 2 3 3 3 3 3 3 3 2 2 2 2 1 1 2 2 2 1 1 2 2 2 2 2 2 3 4 4 4 4
Wind_Direction
350 6 56 56 56 53 232 244 220 259 248 298 350 110 138 136 154 185 338 3 358 352 313 159 133 126 125 120 115 114 111 112 113 115 118 118 119 119 116 114 112 112 113 112 110 109 109 108 108
350 18 53 62 93 142 256 236 217 232 224 51 31 53 74 62 25 10 345 338 353 23 37 82 123 131 130 127 121 117 117 113 113 112 112 113 115 116 114 111 109 109 113 111 108 107 108 108 107
26 48 80 81 132 186 224 226 221 292 337 93 66 38 69 27 355 334 328 336 16 40 37 59 91 125 132 128 124 120 122 118 117 119 118 115 115 116 115 111 110 110 111 110 108 107 108 108 106
69 50 58 86 203 222 222 247 230 340 17 41 97 58 38 20 343 318 339 17 47 37 30 32 82 95 117 128 127 122 121 121 120 122 122 123 120 118 119 116 113 112 112 112 108 106 109 108 106
60 78 77 66 237 251 251 267 242 94 13 17 93 113 38 8 11 24 27 39 55 36 26 31 60 77 90 113 127 128 128 127 125 126 126 126 125 119 120 121 118 114 110 112 112 109 108 110 110
61 74 109 214 237 264 273 276 4 46 35 26 81 127 195 21 25 17 28 35 42 38 23 25 51 60 70 104 110 118 126 133 129 130 133 131 129 125 119 118 121 119 116 115 117 117 112 109 110
107 112 168 192 212 257 257 359 112 120 58 301 163 134 283 358 358 10 35 43 45 38 29 20 21 35 52 71 105 103 111 119 129 130 133 129 127 129 130 120 121 121 118 119 122 117 115 111 111
119 114 151 196 194 233 280 33 65 115 206 344 99 143 234 285 352 36 50 46 43 38 28 17 15 19 25 38 79 94 93 103 111 113 121 124 126 130 128 119 115 119 120 121 120 114 110 109 109
91 94 197 207 191 220 333 43 8 32 90 35 35 106 338 98 64 55 43 30 27 25 21 16 16 15 15 22 61 76 72 81 99 91 101 112 120 123 118 107 112 117 120 122 122 116 110 102 102
94 160 217 210 185 177 317 108 229 48 26 350 354 19 59 80 87 74 51 27 13 360 359 11 17 19 23 29 55 56 60 62 80 85 88 94 106 112 108 105 109 114 115 115 114 112 104 90 83
138 191 212 231 178 147 190 316 337 143 248 225 217 210 102 86 80 83 57 22 340 332 347 355 1 24 42 38 51 56 59 67 70 80 90 96 94 107 105 110 97 102 104 103 99 95 86 87 86
144 243 211 241 172 132 196 228 341 210 228 208 166 156 131 121 136 170 216 320 344 348 337 351 5 36 45 52 67 67 71 75 75 75 97 111 112 110 127 124 117 110 110 106 98 95 94 93 92
191 255 325 166 48 146 124 215 228 280 284 62 96 102 104 124 182 287 325 355 356 349 342 349 12 32 44 64 65 70 70 85 91 79 78 106 136 139 141 135 127 130 123 125 117 113 112 106 97
208 235 294 286 262 259 135 279 93 282 68 86 93 103 101 70 122 46 18 357 340 333 330 337 11 21 57 71 77 70 66 60 83 86 74 89 118 149 148 146 147 144 146 142 136 137 133 133 119
81 26 332 298 231 200 101 333 247 229 88 78 74 74 51 2 25 21 306 301 309 314 326 332 358 32 68 69 55 53 51 59 63 69 65 77 96 113 140 149 164 164 153 141 128 117 117 113 106
59 57 310 294 126 170 124 267 279 60 108 117 103 22 357 341 335 317 314 311 322 337 336 336 4 35 39 56 60 50 56 61 54 51 60 53 71 98 108 126 157 153 145 138 135 123 120 121 127
44 238 246 290 309 119 160 246 277 33 133 225 258 277 327 344 343 338 336 331 333 346 7 6 17 29 22 34 43 53 56 56 47 50 54 44 65 88 107 114 118 132 132 134 139 133 140 145 148
215 218 236 249 281 104 198 262 286 276 203 235 248 253 294 314 303 328 343 348 352 359 22 36 33 24 33 41 42 45 44 33 33 19 14 26 70 101 118 120 101 119 130 138 142 142 132 146 152
170 183 241 253 255 127 237 270 286 287 247 238 243 241 255 272 304 348 351 357 5 14 18 26 40 20 33 40 35 23 359 6 25 11 14 341 21 126 136 114 128 129 137 156 158 152 142 126 111
180 189 236 290 349 159 274 282 284 270 234 216 213 219 232 276 347 3 4 6 6 9 8 12 18 18 15 16 39 231 327 3 17 19 1 323 323 172 169 139 156 145 132 133 149 153 149 131 121
218 194 202 231 341 45 357 303 286 310 0 18 215 206 227 233 302 346 359 355 358 359 358 352 354 359 1 6 39 47 51 24 24 8 356 335 329 159 163 155 155 154 153 169 177 166 151 163 171
242 214 193 184 131 282 83 288 282 282 313 309 284 266 280 294 323 346 353 355 349 336 347 4 1 359 360 14 35 57 76 260 280 307 336 343 331 174 155 138 149 159 168 174 187 179 168 168 177
206 83 131 151 146 328 270 223 280 287 269 266 253 242 265 283 283 305 316 319 334 339 349 358 8 1 358 10 22 30 347 292 319 352 8 352 340 277 146 134 131 147 172 199 189 199 183 181 183
131 74 59 56 79 268 224 191 270 241 235 244 241 252 274 285 286 293 316 342 351 355 359 360 13 356 353 9 27 43 343 321 360 353 328 330 352 325 314 127 151 179 185 204 208 214 207 197 188
102 97 37 357 350 252 212 201 251 257 249 225 229 250 279 280 287 316 335 343 346 349 351 351 354 343 346 2 9 359 241 240 226 242 261 295 325 304 261 217 215 220 218 218 212 211 220 206 198
176 147 162 202 229 274 279 234 254 279 297 274 243 271 307 310 306 307 303 303 318 329 334 336 337 334 337 337 318 324 287 238 234 235 237 239 255 264 264 234 237 238 231 233 222 220 223 214 215
154 178 160 132 142 273 263 279 295 300 344 10 359 350 327 315 313 302 296 298 310 313 313 314 325 330 324 312 305 301 281 268 268 265 253 245 252 264 255 240 242 244 237 238 231 226 222 213 220
154 144 114 136 177 253 277 262 252 260 263 285 304 306 306 320 322 318 303 299 309 308 314 322 328 319 311 302 291 291 278 276 283 275 264 261 253 253 251 250 245 248 246 243 240 233 225 216 225
137 144 142 143 174 185 261 267 237 224 223 232 262 286 293 300 304 303 302 303 316 334 340 336 333 334 328 310 297 296 294 292 296 288 276 270 272 264 260 258 257 253 251 243 241 235 222 219 226
173 182 159 170 221 195 220 267 286 227 232 228 263 293 306 301 305 306 308 327 339 340 342 338 335 334 325 315 314 310 313 316 303 293 288 275 272 279 266 267 265 263 262 251 241 234 224 218 225